Vorticity
16 16 16 16 17 17 17 17 16 16 15 14 13 13 12 12 11 11 10 8 8 8 8 7 7 7 7 7 8 8 8 8 8 8 7 5 4 4 5 7 11 16 21 24 25 23 20 17 15 14 13 13 13 12 11 10 9 10 10 10 11 12 12 13 15 14 12 6 -3
16 16 15 15 15 16 15 15 15 14 13 12 11 11 11 10 10 9 9 8 8 8 8 9 8 8 8 9 9 9 9 9 9 8 8 6 5 5 5 7 10 12 15 19 22 23 23 20 17 14 13 12 12 12 11 10 9 9 10 10 13 14 14 12 14 15 14 11 2
15 15 15 15 15 15 14 14 13 12 11 10 9 8 8 7 7 7 7 7 7 7 8 9 9 9 9 9 9 10 10 10 10 9 8 7 6 6 7 9 12 14 15 17 19 21 22 23 20 17 14 12 11 11 11 10 9 9 10 12 10 11 12 13 13 14 15 13 6
12 12 13 13 13 13 12 11 10 9 8 8 7 7 6 6 5 6 6 6 7 7 8 9 10 11 11 11 11 10 10 10 9 9 8 7 7 8 10 14 16 18 19 18 19 20 22 24 23 21 17 13 11 10 10 10 9 8 9 11 10 9 10 13 14 16 16 14 10
11 11 10 10 10 10 10 9 8 8 7 7 7 7 7 6 6 7 7 8 8 9 10 12 13 14 14 13 13 11 10 9 9 8 7 7 8 10 14 18 21 22 21 20 19 20 22 25 26 25 22 16 13 11 10 10 9 9 9 10 8 8 8 10 14 17 18 16 13
12 12 11 11 10 10 9 8 8 7 7 7 7 8 9 9 10 10 11 11 12 13 13 14 15 16 16 15 15 14 13 11 9 8 7 7 8 11 13 16 19 20 20 19 18 19 22 26 29 30 29 25 19 14 11 11 10 9 9 9 10 10 9 8 12 16 19 19 15
13 12 12 12 11 11 10 9 9 9 9 9 10 10 10 11 11 12 13 14 14 15 15 14 15 15 15 15 15 15 14 13 11 9 7 7 7 8 9 12 14 15 16 16 17 18 21 26 28 29 30 31 28 23 17 13 11 10 10 10 11 11 11 9 10 13 17 21 18
10 11 11 10 10 10 10 10 10 10 10 11 11 11 11 11 12 12 12 13 13 13 13 14 14 14 14 14 15 14 14 13 11 10 8 7 6 5 5 7 11 13 13 14 15 17 19 25 27 25 23 24 28 29 27 22 18 14 12 11 11 11 11 11 8 8 12 20 20
7 8 9 9 10 10 10 10 11 11 10 11 11 11 11 11 11 11 11 12 12 13 13 13 13 13 13 13 14 13 13 12 11 11 10 8 6 4 3 6 14 16 15 13 14 16 19 23 27 25 20 17 20 25 29 31 29 25 21 17 14 13 12 12 9 7 8 12 19
4 4 5 6 7 8 9 9 10 10 10 10 11 11 11 11 11 10 10 10 11 12 12 12 12 12 12 11 11 11 11 11 10 10 10 9 7 5 4 6 17 20 18 12 13 15 18 22 26 25 21 15 14 17 22 26 29 31 30 27 22 19 16 13 11 8 5 5 13
5 5 4 4 4 4 5 6 7 7 7 8 9 9 9 9 9 9 8 7 8 8 9 9 9 9 9 9 9 9 9 9 9 10 10 10 10 9 7 7 14 19 19 14 13 15 17 19 24 27 25 17 10 10 14 19 21 23 25 28 29 27 24 20 16 11 8 7 11
7 7 6 6 5 5 5 5 5 5 5 5 6 7 7 7 7 8 8 6 6 6 6 6 7 7 8 8 8 9 9 9 10 10 11 12 13 14 13 12 13 15 17 14 13 14 16 16 21 27 29 23 10 4 5 9 19 20 19 20 25 29 31 30 23 15 9 9 11
5 6 6 6 6 6 6 7 7 7 7 7 6 6 6 6 7 8 9 9 8 8 7 7 7 8 8 8 8 9 9 10 11 11 11 10 11 13 16 18 16 17 16 14 10 10 13 14 18 24 30 31 15 4 -2 -2 11 14 11 9 14 19 23 25 23 17 11 10 13
7 6 5 5 4 4 4 5 6 6 7 7 8 8 8 8 9 9 10 10 10 10 10 9 9 9 10 8 9 10 11 12 14 14 11 6 4 6 10 15 17 17 17 16 11 8 7 9 13 19 26 33 25 11 -2 -7 0 4 4 2 6 10 14 16 20 18 14 13 14
25 22 20 17 13 10 7 5 4 3 3 4 4 5 7 8 9 10 10 10 10 9 9 8 9 9 8 8 9 10 12 14 15 13 8 1 -1 2 5 8 10 12 14 17 16 13 9 7 9 13 19 28 31 23 9 -5 -5 -3 0 3 6 9 13 18 23 22 18 16 13
45 46 45 43 40 35 30 25 20 16 12 8 6 4 3 3 3 4 5 6 6 7 7 7 7 7 6 5 6 6 8 9 10 9 7 6 10 14 17 14 9 7 8 11 15 17 15 12 10 12 16 22 29 31 26 12 3 -0 1 5 8 11 15 20 24 25 23 21 14
41 45 49 52 54 55 54 53 49 45 40 34 28 23 18 12 7 4 2 3 6 9 11 13 13 13 11 8 6 7 8 9 11 14 17 19 21 20 18 15 12 10 7 6 10 15 18 18 16 16 18 21 25 31 34 32 22 14 9 7 9 12 17 20 21 22 23 24 18
19 22 27 32 38 43 48 53 56 58 58 56 54 52 48 43 37 31 28 28 32 36 39 40 40 40 39 38 33 27 22 18 15 14 14 13 10 7 6 7 13 16 17 14 12 13 17 20 21 22 22 22 23 27 32 37 36 30 23 17 15 17 19 20 15 13 14 21 21
7 8 10 12 16 21 26 31 36 40 44 46 49 52 55 58 59 60 60 60 60 58 54 49 46 46 49 54 54 49 42 33 23 14 7 4 5 8 11 15 19 24 26 25 20 18 19 22 25 25 23 18 15 16 20 28 34 36 34 29 25 24 24 22 14 9 9 17 23
9 8 8 8 9 11 12 15 18 21 24 27 29 31 34 38 44 49 52 51 45 38 31 24 20 18 20 27 36 43 46 44 37 28 18 10 7 9 14 20 24 27 27 26 23 22 22 24 25 22 17 9 4 3 5 13 23 30 33 33 32 32 32 30 23 17 14 18 23
12 12 11 10 10 10 10 10 11 13 15 17 19 18 17 16 18 21 23 24 24 22 19 15 11 8 7 8 15 23 30 36 37 36 32 26 17 13 13 18 23 25 25 22 16 10 7 7 9 8 5 0 1 3 6 8 15 21 26 30 33 36 37 36 32 27 24 22 21
11 11 11 11 11 11 10 10 11 12 13 15 17 18 17 16 13 11 9 8 10 14 16 16 12 10 9 9 8 10 14 20 27 30 31 27 20 14 11 11 13 13 9 2 -3 -5 -7 -8 -2 5 9 10 13 17 19 17 15 16 21 27 31 32 32 31 30 30 28 26 19
9 9 9 10 10 10 10 10 10 11 12 13 16 18 21 23 23 22 19 15 10 6 4 4 3 3 3 4 5 6 7 10 16 21 24 25 25 25 25 24 18 10 1 -8 -5 2 6 2 -0 -1 4 16 22 23 22 21 16 16 19 27 27 25 21 19 20 24 26 25 17
8 8 8 8 8 8 8 9 9 9 9 10 11 13 15 18 22 25 28 30 29 25 18 9 2 -3 -5 -4 -2 -3 -5 -8 -10 -7 -2 6 17 33 50 67 61 45 28 16 16 18 18 14 8 6 9 19 21 20 20 19 17 17 20 25 23 19 14 10 11 15 19 22 17
7 7 7 7 7 7 7 7 7 7 7 7 7 7 8 9 11 15 19 25 31 36 39 40 36 29 23 17 11 1 -12 -27 -34 -36 -35 -32 -26 -11 13 46 67 67 54 36 29 27 26 24 21 20 20 21 20 19 19 20 21 23 24 23 20 17 13 10 9 11 15 19 17
6 6 5 6 6 6 6 6 6 6 6 5 5 5 5 5 6 6 8 11 16 21 28 35 41 46 50 52 49 38 23 5 -4 -7 -6 -1 3 3 2 4 30 47 51 39 27 21 21 23 22 20 18 17 18 19 20 21 23 25 27 26 22 18 15 14 14 16 18 19 18
5 5 5 5 5 5 5 6 6 5 5 5 5 5 5 5 5 5 5 5 6 8 11 15 21 28 36 44 52 55 54 48 39 34 32 36 45 49 42 21 15 24 36 36 26 19 14 11 10 11 12 14 17 19 19 19 18 20 23 26 25 23 21 20 20 21 21 22 20
5 4 4 4 4 4 4 4 5 5 5 6 6 5 5 5 6 6 6 5 5 4 4 5 7 9 13 18 26 33 39 45 48 47 46 44 48 55 56 46 20 11 17 35 38 35 29 22 14 8 6 8 12 14 15 13 11 11 13 17 20 23 24 24 24 25 24 23 22
4 4 4 4 4 3 3 3 4 4 5 5 5 5 5 5 6 6 6 6 6 6 6 6 5 5 5 6 7 9 12 17 21 25 27 27 26 29 36 43 37 24 10 3 18 35 48 50 39 25 13 4 3 4 5 8 8 7 6 8 10 13 17 19 21 22 22 22 21
3 3 3 3 3 3 3 3 3 3 3 4 4 4 5 5 5 5 6 7 8 8 8 8 8 8 8 7 7 6 6 7 8 10 12 15 15 16 18 23 30 34 31 21 8 7 19 42 52 48 35 20 10 5 3 4 7 8 9 12 11 10 9 10 11 12 14 15 16
3 3 3 3 2 2 3 2 2 2 2 3 3 3 3 4 4 4 5 5 5 5 6 6 7 7 7 7 7 8 8 8 8 9 10 12 14 16 16 16 17 21 26 31 29 19 10 9 27 42 48 43 33 23 16 10 9 7 6 9 14 15 13 12 10 9 8 7 7
3 3 2 2 2 2 2 2 2 2 2 2 2 2 3 3 3 4 4 4 3 3 3 4 5 6 6 7 7 7 7 7 8 8 9 10 13 15 17 18 17 17 18 21 27 30 27 16 11 20 35 48 45 39 30 22 13 8 6 6 7 11 15 19 22 23 22 17 11
3 3 3 3 3 3 3 2 2 2 2 2 2 2 2 3 3 3 3 4 4 4 3 3 3 4 4 6 6 7 7 7 7 8 8 9 11 13 16 18 18 17 17 17 18 22 29 37 29 22 22 34 42 41 35 27 21 14 10 9 9 9 10 15 21 29 35 38 32
4 4 4 4 4 4 4 4 4 3 3 3 3 3 3 2 3 3 4 4 4 4 4 4 4 3 3 3 4 5 6 6 6 7 8 8 9 10 13 15 17 18 17 15 14 13 16 26 39 39 33 29 38 40 37 27 23 21 19 13 11 10 8 6 8 13 20 31 39
5 5 5 5 5 5 5 5 5 5 4 4 4 4 4 4 4 4 4 4 4 4 5 5 5 4 4 3 3 4 4 5 5 6 7 8 8 9 10 12 14 16 17 17 15 12 10 10 23 34 40 35 38 43 45 36 28 25 24 21 16 10 5 1 -1 -1 0 8 23
5 5 5 6 6 5 5 5 5 5 4 5 5 5 5 5 4 4 4 4 4 4 5 5 6 6 6 6 6 5 5 5 6 6 7 8 9 10 10 11 12 14 15 17 17 15 12 8 10 19 30 37 36 41 48 51 41 33 28 27 24 18 10 3 0 -3 -5 -4 6
6 6 6 7 7 7 6 6 6 5 5 5 5 5 5 5 5 5 5 5 5 5 5 6 6 7 8 8 8 8 7 7 7 7 8 8 10 11 11 12 12 13 14 15 16 17 16 14 10 10 16 28 33 36 39 48 49 44 35 29 26 22 18 13 11 7 4 3 2
8 8 8 8 8 8 8 8 7 7 7 7 7 7 7 7 6 6 6 7 6 6 6 6 7 7 8 9 10 10 10 10 9 9 9 9 10 11 12 13 14 14 14 15 15 16 17 17 15 11 9 12 25 32 34 32 36 37 34 27 22 19 17 16 17 15 12 8 5
10 10 9 9 9 9 10 9 9 9 9 9 9 9 9 9 9 9 8 9 8 8 7 7 7 7 7 8 10 12 12 12 12 12 11 11 11 12 13 14 15 16 17 16 16 16 16 17 17 15 11 7 13 24 33 33 27 23 21 19 15 14 13 14 16 17 16 11 7
10 10 10 9 9 9 9 9 9 9 9 9 9 9 10 10 10 10 10 10 10 9 8 8 8 7 7 8 10 12 14 16 16 16 16 15 14 14 14 15 16 17 19 18 17 17 16 16 16 16 15 11 9 14 23 34 34 29 21 15 11 9 9 12 15 17 16 13 9
9 9 9 9 8 8 8 8 8 8 8 8 8 9 9 9 9 8 8 8 8 8 8 8 8 8 8 8 9 10 13 16 19 20 20 20 19 18 17 17 17 18 20 20 20 19 17 16 16 15 15 14 12 11 13 21 32 36 35 27 19 12 7 7 12 16 17 15 11
Height
2976 2977 2977 2977 2978 2978 2979 2980 2981 2981 2982 2983 2984 2985 2986 2986 2986 2986 2987 2987 2987 2987 2987 2987 2987 2988 2988 2989 2989 2989 2989 2989 2989 2989 2989 2989 2989 2989 2990 2990 2991 2991 2991 2991 2991 2991 2991 2992 2993 2993 2994 2995 2996 2996 2997 2998 2999 3001 3002 3004 3005 3006 3009 3012 3015 3017 3019 3021 3023
2976 2976 2976 2977 2977 2978 2978 2979 2980 2981 2981 2982 2983 2984 2984 2984 2984 2985 2985 2985 2985 2984 2984 2984 2985 2985 2985 2986 2986 2986 2985 2985 2985 2985 2985 2986 2986 2986 2986 2986 2986 2987 2987 2987 2987 2987 2987 2987 2988 2989 2989 2990 2991 2992 2992 2993 2995 2996 2998 2999 3001 3003 3005 3007 3010 3012 3015 3017 3018
2976 2976 2976 2976 2977 2977 2978 2979 2979 2980 2981 2981 2982 2982 2982 2983 2983 2982 2982 2982 2982 2982 2982 2982 2982 2982 2983 2983 2983 2982 2982 2981 2981 2981 2981 2981 2982 2982 2982 2982 2983 2983 2982 2982 2982 2982 2983 2983 2984 2984 2984 2985 2986 2987 2988 2989 2991 2992 2993 2994 2997 2999 3001 3002 3005 3008 3011 3013 3015
2976 2976 2976 2976 2977 2977 2977 2978 2979 2979 2980 2980 2980 2980 2981 2981 2981 2981 2981 2981 2980 2980 2980 2980 2980 2980 2980 2980 2980 2979 2979 2978 2978 2978 2977 2977 2978 2978 2978 2978 2979 2978 2978 2978 2978 2978 2978 2979 2979 2979 2979 2980 2981 2982 2983 2985 2986 2987 2988 2989 2992 2995 2996 2997 3000 3004 3006 3008 3011
2976 2976 2976 2976 2976 2977 2977 2977 2978 2978 2978 2978 2978 2978 2978 2978 2978 2978 2978 2978 2978 2978 2978 2978 2977 2977 2977 2977 2976 2976 2976 2975 2975 2974 2974 2974 2974 2974 2974 2974 2974 2974 2974 2974 2974 2974 2974 2974 2974 2974 2974 2975 2976 2977 2978 2980 2982 2983 2984 2985 2987 2989 2991 2993 2996 2999 3001 3003 3006
2976 2976 2976 2976 2976 2976 2976 2977 2977 2977 2977 2977 2976 2976 2976 2976 2976 2976 2976 2975 2976 2976 2976 2975 2975 2974 2974 2974 2973 2973 2972 2972 2971 2971 2971 2970 2970 2970 2970 2970 2970 2970 2970 2971 2970 2970 2970 2970 2970 2970 2970 2971 2971 2972 2974 2976 2977 2978 2979 2980 2982 2984 2986 2988 2991 2993 2996 2999 3001
2976 2975 2975 2975 2975 2975 2976 2976 2976 2975 2975 2975 2975 2974 2974 2974 2974 2973 2973 2972 2972 2972 2972 2971 2971 2971 2971 2970 2970 2970 2969 2969 2968 2968 2968 2967 2967 2967 2967 2966 2966 2966 2966 2966 2966 2966 2966 2966 2967 2966 2966 2967 2968 2969 2970 2972 2973 2973 2974 2976 2977 2979 2981 2983 2986 2989 2992 2994 2996
2974 2974 2974 2974 2974 2974 2973 2973 2973 2973 2973 2973 2972 2972 2972 2972 2971 2971 2970 2970 2969 2969 2969 2968 2968 2967 2967 2967 2966 2966 2966 2966 2965 2965 2965 2964 2964 2964 2963 2963 2963 2963 2962 2962 2962 2962 2962 2962 2963 2963 2963 2963 2964 2965 2966 2968 2969 2969 2970 2971 2972 2975 2977 2978 2981 2985 2988 2989 2992
2971 2971 2972 2972 2972 2972 2972 2971 2971 2971 2971 2970 2970 2970 2970 2969 2969 2968 2968 2967 2967 2966 2966 2965 2965 2964 2964 2963 2963 2962 2962 2962 2962 2961 2961 2961 2961 2961 2960 2960 2959 2959 2959 2959 2959 2958 2958 2958 2958 2958 2958 2959 2960 2961 2963 2964 2965 2966 2966 2967 2969 2971 2972 2974 2976 2979 2982 2985 2986
2971 2970 2970 2969 2969 2969 2969 2969 2969 2969 2969 2969 2968 2968 2967 2967 2966 2966 2965 2965 2964 2964 2963 2963 2962 2961 2961 2960 2960 2959 2959 2958 2958 2958 2958 2958 2958 2957 2957 2956 2956 2956 2955 2955 2955 2955 2955 2954 2954 2954 2954 2955 2956 2958 2960 2961 2962 2962 2962 2963 2965 2966 2968 2969 2971 2974 2976 2979 2981
2971 2970 2970 2969 2968 2968 2968 2967 2967 2967 2967 2967 2966 2966 2966 2965 2964 2963 2962 2961 2961 2960 2960 2960 2959 2959 2958 2957 2956 2956 2955 2955 2955 2954 2954 2954 2954 2954 2954 2953 2953 2952 2952 2951 2952 2951 2951 2951 2950 2950 2950 2951 2953 2956 2958 2959 2959 2959 2959 2959 2960 2962 2964 2965 2966 2968 2971 2974 2977
2971 2970 2969 2969 2968 2968 2967 2967 2966 2966 2965 2964 2963 2963 2963 2962 2962 2961 2961 2959 2958 2957 2956 2956 2956 2955 2954 2953 2953 2952 2952 2951 2951 2951 2951 2950 2951 2951 2950 2950 2949 2949 2948 2948 2948 2948 2947 2947 2946 2947 2947 2947 2948 2951 2954 2957 2958 2958 2957 2956 2956 2957 2959 2961 2962 2964 2966 2970 2973
2970 2970 2969 2968 2968 2967 2966 2966 2965 2964 2963 2962 2961 2960 2959 2959 2959 2958 2958 2957 2956 2955 2954 2953 2953 2952 2951 2951 2950 2949 2949 2948 2948 2947 2947 2946 2947 2947 2946 2946 2946 2946 2945 2945 2945 2944 2944 2943 2943 2943 2944 2944 2944 2945 2947 2951 2954 2955 2955 2954 2954 2954 2956 2957 2957 2959 2962 2966 2970
2969 2969 2968 2967 2966 2966 2965 2964 2963 2962 2961 2960 2959 2957 2957 2956 2955 2955 2954 2953 2953 2952 2951 2951 2950 2949 2948 2948 2947 2947 2946 2945 2945 2944 2943 2943 2943 2943 2943 2942 2942 2942 2942 2941 2941 2941 2941 2940 2940 2940 2940 2941 2941 2941 2941 2943 2945 2947 2948 2948 2947 2947 2949 2951 2953 2955 2958 2961 2965
2968 2967 2966 2965 2965 2964 2963 2961 2961 2960 2958 2957 2956 2955 2954 2953 2952 2951 2951 2950 2949 2949 2948 2948 2947 2946 2946 2945 2944 2944 2943 2942 2941 2941 2940 2940 2939 2939 2939 2939 2938 2938 2938 2938 2938 2938 2937 2937 2936 2936 2936 2936 2937 2938 2938 2937 2937 2938 2939 2939 2939 2941 2943 2946 2948 2951 2953 2956 2961
2968 2966 2965 2964 2963 2961 2960 2959 2958 2957 2956 2955 2954 2952 2951 2950 2949 2948 2947 2946 2946 2945 2945 2944 2944 2943 2943 2942 2941 2941 2940 2939 2938 2938 2937 2936 2935 2935 2935 2935 2934 2935 2935 2935 2934 2934 2934 2934 2934 2933 2932 2932 2933 2934 2934 2934 2933 2933 2933 2934 2935 2936 2938 2941 2944 2947 2949 2951 2956
2967 2966 2964 2963 2961 2960 2958 2957 2956 2954 2953 2952 2951 2950 2948 2947 2946 2945 2944 2943 2942 2941 2941 2941 2940 2940 2940 2939 2939 2939 2938 2937 2936 2935 2934 2933 2932 2932 2931 2931 2930 2931 2931 2931 2931 2930 2930 2930 2930 2929 2928 2928 2928 2929 2930 2931 2931 2931 2930 2931 2931 2932 2934 2937 2941 2945 2946 2947 2950
2968 2966 2964 2963 2961 2959 2957 2956 2954 2953 2951 2950 2949 2947 2946 2945 2944 2943 2941 2940 2939 2938 2938 2937 2937 2936 2936 2935 2935 2935 2935 2934 2933 2932 2931 2931 2930 2929 2929 2928 2927 2927 2927 2927 2927 2927 2926 2926 2925 2925 2925 2925 2924 2925 2926 2926 2927 2927 2927 2928 2928 2929 2930 2933 2936 2941 2943 2943 2945
2968 2966 2965 2963 2961 2959 2957 2955 2953 2952 2951 2949 2948 2946 2945 2943 2942 2941 2939 2938 2937 2936 2935 2935 2934 2933 2932 2931 2930 2930 2930 2930 2930 2930 2929 2929 2927 2926 2926 2925 2924 2924 2923 2923 2923 2923 2922 2922 2922 2922 2921 2921 2921 2921 2921 2922 2922 2923 2924 2925 2925 2926 2927 2929 2931 2933 2935 2937 2940
2968 2966 2965 2963 2961 2959 2957 2956 2954 2952 2951 2949 2948 2946 2945 2943 2941 2940 2938 2936 2935 2934 2934 2933 2933 2932 2931 2931 2930 2928 2927 2927 2926 2926 2926 2925 2925 2924 2923 2922 2921 2920 2920 2920 2920 2919 2919 2919 2919 2919 2918 2918 2918 2918 2918 2918 2918 2919 2920 2921 2921 2923 2924 2926 2927 2929 2931 2933 2936
2968 2966 2965 2963 2961 2959 2957 2956 2954 2952 2951 2950 2948 2947 2945 2944 2942 2940 2939 2937 2935 2934 2933 2932 2932 2931 2931 2930 2930 2928 2927 2926 2925 2923 2922 2921 2921 2921 2920 2919 2918 2918 2917 2916 2916 2916 2916 2916 2916 2916 2915 2915 2915 2916 2917 2917 2916 2915 2915 2916 2918 2919 2921 2923 2925 2927 2929 2932 2933
2968 2966 2965 2963 2961 2960 2958 2956 2954 2953 2951 2950 2948 2947 2945 2944 2942 2941 2939 2937 2935 2933 2931 2930 2930 2929 2928 2928 2927 2926 2925 2924 2922 2921 2920 2919 2918 2918 2917 2917 2916 2915 2915 2915 2914 2915 2915 2915 2914 2913 2912 2911 2912 2913 2914 2915 2914 2913 2912 2912 2914 2916 2918 2920 2922 2923 2926 2928 2930
2968 2966 2965 2963 2962 2960 2958 2956 2955 2953 2951 2950 2948 2946 2945 2943 2942 2941 2939 2937 2935 2933 2931 2929 2927 2927 2926 2926 2925 2923 2922 2921 2920 2919 2918 2917 2916 2915 2914 2913 2912 2911 2912 2912 2914 2916 2916 2915 2913 2912 2911 2910 2908 2907 2909 2911 2911 2911 2910 2909 2910 2912 2914 2917 2919 2921 2923 2924 2926
2968 2966 2965 2963 2962 2960 2958 2956 2955 2953 2951 2950 2948 2946 2944 2943 2941 2940 2938 2936 2935 2933 2931 2929 2927 2926 2925 2924 2923 2922 2920 2919 2917 2916 2916 2915 2913 2912 2910 2908 2907 2906 2905 2904 2904 2904 2904 2904 2905 2905 2904 2904 2903 2903 2904 2905 2906 2906 2906 2906 2907 2909 2911 2912 2915 2918 2920 2920 2922
2968 2966 2965 2964 2962 2960 2958 2957 2955 2953 2951 2950 2948 2946 2944 2942 2940 2938 2937 2935 2933 2932 2930 2928 2926 2925 2923 2922 2921 2920 2919 2917 2915 2913 2912 2911 2911 2909 2908 2906 2903 2902 2901 2901 2901 2900 2900 2900 2899 2898 2897 2897 2898 2899 2900 2902 2902 2902 2903 2903 2905 2906 2907 2909 2910 2911 2912 2914 2917
2968 2967 2965 2964 2962 2960 2959 2957 2955 2953 2951 2950 2948 2946 2944 2942 2940 2938 2936 2935 2933 2931 2929 2927 2925 2924 2922 2921 2920 2919 2917 2916 2914 2912 2910 2908 2907 2906 2906 2904 2901 2900 2900 2900 2900 2900 2899 2899 2898 2897 2896 2895 2895 2896 2897 2898 2899 2900 2900 2901 2902 2903 2904 2906 2907 2908 2910 2912 2914
2969 2967 2966 2964 2962 2960 2959 2957 2955 2953 2951 2950 2948 2946 2944 2942 2941 2939 2937 2935 2933 2931 2929 2927 2925 2923 2922 2920 2919 2917 2916 2915 2913 2911 2909 2907 2905 2903 2902 2901 2899 2897 2896 2896 2896 2897 2897 2896 2896 2895 2894 2894 2893 2894 2894 2895 2896 2897 2898 2899 2900 2900 2901 2902 2904 2906 2907 2909 2911
2969 2967 2965 2964 2962 2960 2958 2957 2955 2953 2951 2950 2948 2946 2944 2942 2941 2939 2937 2935 2933 2931 2929 2927 2925 2923 2921 2920 2918 2917 2915 2913 2911 2909 2907 2904 2902 2900 2899 2898 2896 2895 2894 2893 2892 2892 2892 2892 2892 2892 2892 2891 2891 2892 2893 2893 2894 2895 2896 2897 2897 2898 2898 2899 2901 2903 2904 2906 2908
2968 2966 2965 2963 2961 2960 2958 2956 2955 2953 2951 2949 2947 2946 2944 2942 2940 2938 2936 2935 2933 2931 2929 2927 2925 2923 2921 2919 2917 2916 2913 2911 2909 2906 2904 2901 2899 2896 2895 2894 2893 2892 2891 2891 2890 2889 2889 2888 2888 2888 2888 2888 2889 2890 2891 2892 2892 2893 2894 2894 2895 2895 2896 2897 2898 2900 2901 2903 2905
2968 2966 2964 2962 2961 2959 2957 2956 2954 2952 2950 2948 2947 2945 2943 2941 2940 2938 2936 2934 2932 2930 2928 2926 2924 2922 2920 2918 2916 2915 2912 2910 2907 2905 2902 2900 2897 2895 2892 2890 2889 2888 2888 2887 2887 2886 2886 2885 2885 2884 2884 2884 2885 2886 2887 2888 2889 2890 2891 2891 2891 2892 2893 2894 2895 2896 2898 2900 2902
2967 2965 2963 2961 2960 2958 2956 2954 2953 2951 2949 2947 2946 2944 2942 2940 2938 2936 2934 2932 2931 2929 2927 2925 2923 2921 2920 2918 2916 2914 2911 2909 2907 2904 2901 2899 2896 2894 2892 2889 2887 2885 2884 2883 2883 2882 2882 2882 2881 2881 2881 2881 2881 2881 2882 2883 2884 2885 2887 2888 2889 2889 2889 2890 2891 2893 2895 2896 2898
2966 2964 2962 2960 2959 2957 2955 2953 2951 2950 2948 2946 2944 2943 2941 2939 2937 2935 2933 2931 2929 2927 2926 2924 2922 2920 2918 2916 2914 2912 2910 2908 2906 2904 2901 2899 2896 2894 2891 2889 2886 2884 2882 2881 2879 2879 2878 2878 2878 2878 2877 2877 2876 2877 2878 2879 2880 2881 2881 2883 2885 2886 2886 2886 2887 2889 2891 2893 2895
2965 2963 2961 2959 2957 2956 2954 2952 2950 2949 2947 2945 2943 2941 2939 2938 2936 2934 2932 2930 2928 2926 2924 2921 2920 2918 2916 2914 2912 2911 2909 2907 2905 2903 2901 2899 2896 2894 2891 2889 2886 2884 2881 2880 2878 2876 2875 2874 2874 2874 2874 2873 2872 2872 2873 2874 2876 2877 2877 2878 2880 2882 2884 2885 2886 2886 2888 2890 2891
2964 2962 2961 2959 2957 2955 2953 2951 2950 2948 2946 2944 2942 2940 2938 2936 2934 2932 2931 2929 2927 2925 2923 2921 2918 2916 2914 2912 2910 2908 2906 2905 2903 2901 2899 2898 2896 2894 2891 2888 2886 2883 2881 2879 2877 2875 2873 2871 2871 2871 2871 2870 2869 2869 2868 2869 2870 2871 2873 2874 2875 2876 2877 2881 2883 2884 2884 2885 2887
2964 2962 2960 2958 2956 2955 2953 2951 2949 2947 2945 2943 2941 2939 2937 2935 2933 2931 2929 2927 2926 2924 2922 2920 2918 2916 2913 2911 2909 2906 2904 2902 2900 2899 2897 2895 2894 2892 2890 2888 2885 2883 2881 2878 2876 2874 2872 2870 2868 2867 2867 2867 2867 2866 2865 2865 2866 2867 2869 2870 2871 2872 2874 2875 2878 2880 2881 2882 2882
2964 2962 2960 2958 2956 2954 2952 2951 2949 2947 2945 2943 2941 2939 2936 2934 2932 2930 2928 2926 2924 2922 2920 2918 2917 2915 2913 2911 2908 2905 2902 2900 2897 2896 2894 2892 2891 2890 2888 2886 2884 2882 2880 2877 2875 2873 2871 2869 2866 2865 2865 2864 2864 2863 2863 2862 2862 2863 2864 2866 2867 2869 2870 2871 2872 2874 2876 2879 2880
2963 2961 2959 2957 2956 2954 2952 2950 2948 2946 2944 2942 2940 2938 2936 2933 2931 2929 2927 2924 2922 2920 2918 2916 2915 2913 2911 2909 2907 2904 2901 2899 2896 2893 2891 2889 2887 2886 2885 2884 2882 2881 2878 2876 2873 2871 2869 2867 2865 2864 2862 2862 2861 2861 2861 2860 2860 2860 2861 2862 2863 2865 2866 2867 2868 2869 2870 2872 2875
2962 2961 2959 2956 2955 2953 2951 2949 2946 2945 2943 2941 2938 2936 2934 2932 2930 2928 2926 2923 2921 2918 2916 2914 2912 2911 2909 2907 2906 2903 2901 2898 2895 2892 2889 2887 2885 2883 2881 2881 2879 2878 2876 2874 2872 2870 2867 2865 2864 2862 2861 2860 2860 2859 2858 2858 2858 2858 2858 2859 2859 2861 2862 2864 2865 2866 2866 2867 2868
2961 2960 2957 2956 2953 2951 2949 2947 2945 2943 2941 2939 2937 2935 2933 2931 2928 2926 2924 2922 2920 2917 2915 2912 2910 2908 2906 2905 2903 2901 2900 2897 2895 2892 2889 2886 2883 2880 2878 2877 2876 2875 2874 2872 2870 2868 2866 2864 2862 2861 2860 2859 2858 2857 2857 2856 2856 2856 2856 2856 2856 2857 2859 2860 2861 2862 2864 2865 2866
2960 2958 2956 2954 2952 2950 2948 2946 2944 2941 2939 2937 2935 2933 2931 2929 2926 2925 2922 2920 2918 2916 2914 2911 2909 2906 2904 2902 2901 2899 2897 2896 2893 2891 2888 2885 2882 2879 2876 2874 2873 2871 2871 2870 2868 2866 2864 2862 2860 2859 2858 2857 2856 2856 2855 2854 2853 2853 2853 2854 2854 2855 2856 2857 2858 2859 2861 2862 2864
2959 2957 2955 2953 2951 2949 2946 2944 2942 2940 2938 2936 2933 2931 2929 2927 2925 2923 2921 2919 2916 2914 2912 2910 2908 2905 2903 2900 2898 2896 2894 2893 2891 2889 2887 2884 2881 2877 2874 2871 2870 2868 2867 2866 2865 2864 2862 2860 2858 2857 2856 2855 2854 2854 2853 2852 2851 2851 2851 2851 2851 2852 2853 2854 2855 2856 2858 2860 2861